Location: Coupvray
(48.8929°N, 2.7967°E)
Time: 13:45:17
(UTC+00:00)

Altair 2 - Pass Details

Date: 21 January 2021
Orbit: 837 x 949 km, 90.2° (Epoch: 28 February)

Event Time Altitude Azimuth Distance (km) Brightness Sun altitude
Rises 04:21:13 0° 17° (NNE) 3,447 11.1 -31.0°
Reaches altitude 10° 04:25:12 10° 45° (NE) 2,527 10.7 -30.3°
Maximum altitude 04:27:40 13° 71° (ENE) 2,338 10.8 -29.9°
Drops below altitude 10° 04:30:10 10° 98° (E) 2,552 11.1 -29.5°
Sets 04:34:13 0° 125° (SE) 3,514 11.7 -28.8°
